Wind_Speed
6 6 6 6 7 7 7 7 7 7 6 6 6 6 5 5 7 6 6 5 4 4 4 5 5 6 6 7 7 7 8 8 9 10 10 10 10 9 9 9 9 10 10
5 6 6 6 6 6 6 7 7 7 7 6 5 6 6 6 6 6 7 6 6 6 6 6 6 7 7 7 8 9 9 10 10 11 11 11 11 11 10 10 11 11 11
5 5 6 6 6 6 6 6 6 7 7 7 6 6 5 6 6 6 6 6 6 6 6 7 7 7 8 8 9 9 10 10 11 11 12 12 12 11 11 12 12 12 13
5 5 6 6 6 6 6 6 6 7 7 8 8 7 6 6 6 6 7 7 6 6 7 8 8 8 8 9 9 9 10 11 11 11 12 13 12 12 12 13 13 13 13
7 6 6 6 6 6 6 7 7 7 7 7 7 7 6 6 7 7 7 7 7 7 7 8 8 8 8 8 9 9 10 10 11 11 12 12 12 12 13 13 14 14 14
8 8 8 7 6 7 7 7 8 8 8 8 7 7 7 7 8 7 7 8 8 8 8 8 8 9 9 9 9 10 10 11 12 12 12 12 12 13 13 14 15 15 14
8 9 9 9 8 8 8 8 8 8 9 9 9 8 8 8 8 8 8 8 8 8 9 9 10 10 11 11 11 11 11 12 12 12 12 12 13 14 14 14 14 14 14
11 11 11 11 11 10 9 9 9 9 9 9 9 10 10 9 8 9 9 9 9 9 10 10 10 11 12 12 12 12 12 12 12 13 13 13 13 13 13 13 13 13 13
13 12 13 12 12 11 11 11 11 10 10 10 10 10 10 10 10 10 11 10 10 11 11 11 12 13 13 13 13 12 13 13 13 13 13 13 13 14 13 13 13 13 12
14 13 13 13 13 13 12 12 11 12 12 11 11 11 11 11 11 11 11 11 11 12 12 12 13 13 13 13 13 13 13 13 14 14 14 14 13 13 13 13 13 13 13
14 14 14 14 13 13 13 13 12 13 13 12 12 12 12 12 12 12 12 12 13 13 13 14 14 13 13 14 14 14 14 14 14 15 15 14 14 14 14 14 15 15 16
16 16 16 15 14 14 13 13 13 13 13 13 13 13 13 13 13 13 13 14 14 14 15 15 15 14 14 14 15 15 14 14 14 15 15 15 15 16 15 16 16 17 18
17 16 16 17 16 15 15 15 15 14 14 14 14 14 14 15 14 14 15 15 16 16 16 15 15 15 15 14 14 14 15 15 15 15 15 16 16 17 17 18 18 19 19
18 17 17 18 17 17 16 16 16 16 16 15 15 15 15 15 15 16 17 17 17 16 16 16 16 16 16 15 15 15 15 16 16 16 16 17 17 18 18 19 20 20 20
20 19 19 19 19 19 18 18 17 17 17 17 17 16 16 16 17 17 18 18 17 17 17 17 17 17 16 16 17 17 18 18 18 17 18 18 19 19 20 20 21 21 22
22 21 21 20 20 20 19 19 19 18 19 19 18 18 18 18 18 19 19 19 19 19 19 19 19 18 18 18 19 20 20 20 20 20 20 20 20 21 21 22 22 23 23
24 23 22 22 21 21 21 20 20 20 19 19 19 19 19 18 19 19 19 19 20 20 20 20 20 20 20 21 21 22 22 22 23 23 22 22 22 22 22 23 23 24 24
25 25 24 23 23 23 23 22 22 22 21 20 20 20 20 20 21 21 20 21 21 21 22 22 22 22 22 22 23 23 24 24 25 25 25 24 24 24 24 25 25 25 26
26 25 25 25 25 24 24 24 23 23 23 22 22 21 21 22 22 21 21 22 22 22 22 23 23 23 23 23 24 25 26 26 26 27 26 25 25 25 26 26 26 26 27
27 26 25 25 25 25 25 25 24 24 23 23 23 23 22 22 22 22 23 23 23 23 23 23 23 23 24 24 26 26 27 27 27 27 27 27 26 26 27 28 28 28 28
27 27 26 25 25 25 26 26 26 25 25 24 24 24 24 24 24 24 24 25 24 24 24 24 24 25 25 25 26 27 27 27 27 28 28 28 28 29 29 29 29 29 30
27 27 27 26 26 26 26 26 26 26 26 26 26 26 26 26 26 26 26 26 26 26 25 26 26 26 26 27 27 27 28 28 28 28 29 29 30 31 31 31 31 31 31
27 27 27 27 27 26 26 26 26 27 27 27 27 27 26 27 27 27 27 27 26 26 26 27 27 28 29 28 28 28 28 29 29 30 31 32 32 32 32 32 33 33 33
27 27 28 28 27 28 27 27 27 27 27 26 27 27 27 27 27 27 27 27 27 27 27 27 28 28 28 29 29 29 30 31 31 32 32 34 34 34 34 34 35 35 35
27 27 28 28 28 28 28 27 27 27 27 27 27 26 26 26 26 26 27 27 27 28 28 29 29 29 29 29 30 31 32 32 33 33 34 34 35 35 35 36 36 36 36
27 28 28 28 28 28 28 28 27 26 26 26 26 26 26 27 28 29 28 28 28 29 30 30 30 30 30 30 31 32 32 33 34 34 35 35 36 37 37 37 37 37 37
Wind_Direction
12 13 18 25 30 32 31 29 31 31 27 27 27 23 21 18 17 20 14 8 1 347 329 317 320 311 298 296 297 297 297 295 294 293 292 289 284 280 275 280 285 287 287
359 2 6 12 17 19 21 20 21 21 15 14 14 10 12 13 12 6 2 1 359 352 338 326 320 322 318 307 303 297 296 297 296 293 291 290 289 282 284 284 283 286 288
344 352 354 1 3 4 6 6 9 10 8 5 0 358 357 360 3 4 0 356 352 349 343 334 327 323 321 315 307 302 296 299 299 296 292 290 292 288 288 286 284 284 286
320 331 339 345 348 353 357 356 354 355 354 355 354 352 351 351 352 355 355 351 347 340 337 333 332 325 321 318 315 309 304 303 298 295 293 291 292 294 293 291 291 289 287
304 309 318 326 330 332 338 342 344 344 345 347 350 346 345 346 344 344 345 344 341 338 333 328 328 330 326 321 318 314 309 308 302 300 298 295 296 299 298 296 296 294 290
298 299 302 307 314 318 322 327 332 336 339 340 341 338 332 331 331 333 336 338 336 335 334 328 324 323 325 323 318 315 313 310 305 300 298 297 300 299 300 301 298 296 295
292 295 297 302 310 309 311 318 323 325 328 333 335 334 329 325 322 325 330 333 334 333 335 329 322 320 321 319 317 314 312 310 306 302 302 302 300 301 302 303 303 298 295
282 287 290 292 297 302 303 306 311 315 316 322 326 328 328 330 325 325 326 327 329 330 333 334 328 324 320 318 317 314 311 308 306 303 305 304 302 303 301 302 304 303 300
279 284 285 287 289 294 299 303 303 306 307 309 314 319 321 322 323 321 320 319 320 321 325 326 324 321 319 317 314 309 309 307 306 304 304 304 304 302 300 303 302 301 302
278 282 281 283 286 287 289 296 301 303 303 302 304 310 313 313 313 315 319 317 315 315 318 320 316 316 315 315 314 311 309 309 306 307 307 306 306 306 305 304 303 302 301
274 276 279 280 283 286 289 290 294 299 298 296 296 300 304 304 307 309 310 310 311 313 313 314 312 311 311 311 311 311 309 307 307 308 310 309 308 308 306 304 304 305 304
277 274 276 279 280 283 287 290 294 297 296 294 292 293 295 296 299 300 302 305 306 307 309 310 311 309 309 309 309 309 307 306 307 308 309 307 306 305 305 304 304 305 304
276 275 274 276 278 280 284 287 289 291 291 292 290 289 290 291 294 294 297 300 302 304 306 308 306 306 307 308 309 307 305 306 307 306 306 306 305 303 302 300 300 301 302
276 275 273 275 277 278 281 286 287 288 288 288 287 288 288 289 291 292 294 295 297 298 301 302 303 305 305 304 304 302 303 304 304 304 304 304 304 303 301 300 300 301 301
274 275 274 274 275 276 278 283 285 287 287 285 284 286 285 284 287 290 293 294 294 296 297 298 298 300 300 299 299 299 301 304 302 302 303 303 301 300 300 300 300 300 299
271 273 273 273 273 273 276 280 283 285 285 284 283 283 284 283 285 288 290 291 292 293 294 295 296 296 296 296 298 298 298 301 303 303 304 304 303 301 301 301 300 299 300
268 271 272 272 272 272 275 278 280 282 283 283 281 280 283 284 284 285 287 289 290 291 290 290 292 293 294 294 294 295 296 299 301 301 301 301 302 302 301 301 301 301 301
266 268 270 271 271 272 274 277 278 280 280 281 281 280 280 283 284 285 287 289 290 291 292 292 291 291 293 293 294 295 296 297 299 299 301 300 300 300 299 299 299 299 299
266 267 269 270 270 271 273 275 277 279 278 278 278 279 279 280 282 284 286 286 288 290 291 291 293 293 293 293 295 295 296 296 296 297 298 298 297 297 298 298 297 297 298
265 265 266 269 269 270 271 273 274 276 276 277 277 277 278 279 280 282 283 284 286 287 289 291 292 293 294 294 295 296 297 297 297 296 296 296 297 297 297 298 297 297 298
263 263 265 266 268 269 270 270 271 273 275 276 275 274 275 276 277 280 282 283 284 285 287 288 290 291 292 292 293 295 296 297 297 297 296 296 297 297 297 297 298 297 297
263 263 263 264 266 268 269 270 270 272 274 275 274 273 274 274 276 278 281 282 283 284 284 286 288 289 289 289 291 294 296 297 297 297 296 295 295 295 296 297 296 296 296
263 262 262 263 265 267 268 270 270 272 273 275 275 274 275 275 276 278 281 282 284 285 285 286 287 288 288 289 291 293 294 296 296 296 296 297 297 296 296 295 294 295 296
262 262 262 261 262 264 267 269 271 273 272 273 276 276 275 276 276 277 278 280 283 286 287 288 288 289 290 291 292 292 292 294 295 295 295 297 297 296 296 297 295 295 295
261 264 264 262 262 263 265 269 272 273 273 273 274 274 276 279 280 279 278 279 282 284 286 288 290 291 292 293 294 294 294 295 295 294 295 296 296 295 295 295 295 294 294
263 264 265 265 263 263 265 267 270 273 274 274 275 277 278 280 280 280 281 281 283 284 285 287 289 290 291 292 294 294 295 295 296 296 297 297 297 296 294 294 294 295 293
Height
5901 5900 5900 5899 5898 5898 5897 5896 5895 5895 5894 5894 5893 5893 5892 5892 5891 5891 5890 5890 5889 5889 5889 5889 5889 5888 5888 5888 5887 5887 5887 5887 5887 5887 5886 5886 5885 5885 5885 5885 5885 5885 5885
5902 5901 5900 5900 5900 5899 5898 5898 5897 5896 5896 5895 5894 5893 5893 5892 5892 5891 5891 5890 5889 5889 5889 5888 5888 5887 5887 5887 5886 5886 5886 5885 5885 5885 5884 5884 5884 5883 5883 5883 5883 5883 5883
5903 5902 5901 5901 5900 5900 5899 5899 5898 5897 5896 5896 5895 5894 5893 5893 5892 5891 5891 5890 5889 5888 5888 5888 5887 5887 5886 5886 5885 5885 5884 5884 5883 5883 5883 5882 5881 5880 5881 5881 5880 5880 5880
5902 5902 5902 5901 5901 5901 5900 5899 5899 5898 5897 5896 5895 5894 5894 5893 5892 5891 5891 5890 5889 5888 5887 5887 5886 5886 5885 5884 5883 5883 5882 5882 5882 5881 5880 5880 5879 5879 5879 5878 5877 5877 5876
5902 5902 5901 5901 5901 5901 5900 5900 5899 5898 5897 5896 5895 5894 5894 5893 5892 5891 5890 5889 5888 5887 5886 5886 5885 5885 5884 5883 5882 5881 5881 5880 5880 5879 5878 5877 5877 5876 5876 5875 5875 5874 5873
5901 5901 5901 5900 5900 5900 5900 5899 5899 5898 5897 5896 5895 5894 5894 5893 5892 5891 5890 5889 5888 5887 5886 5885 5884 5883 5883 5882 5881 5880 5879 5878 5877 5876 5876 5875 5874 5874 5873 5872 5871 5871 5870
5900 5900 5900 5899 5899 5899 5899 5899 5898 5898 5897 5896 5895 5894 5893 5892 5891 5890 5889 5888 5887 5886 5885 5884 5883 5882 5881 5880 5879 5878 5877 5876 5875 5874 5873 5873 5872 5871 5870 5869 5868 5867 5867
5899 5899 5898 5898 5898 5898 5898 5897 5897 5897 5896 5895 5894 5893 5892 5891 5890 5889 5888 5887 5886 5885 5884 5883 5882 5881 5880 5879 5877 5877 5876 5874 5873 5872 5871 5870 5869 5868 5867 5866 5865 5864 5864
5897 5897 5897 5896 5896 5896 5896 5896 5895 5895 5894 5893 5893 5892 5891 5890 5889 5888 5887 5886 5885 5884 5882 5881 5880 5879 5878 5877 5876 5874 5873 5872 5871 5870 5869 5867 5866 5865 5864 5863 5862 5862 5861
5894 5894 5894 5894 5894 5894 5893 5893 5893 5893 5892 5891 5891 5890 5889 5888 5887 5886 5885 5884 5883 5882 5881 5879 5878 5877 5876 5875 5874 5872 5871 5870 5868 5867 5865 5864 5863 5862 5861 5860 5859 5858 5856
5892 5891 5891 5891 5891 5891 5891 5891 5890 5890 5889 5889 5888 5888 5887 5886 5885 5884 5883 5882 5881 5880 5879 5877 5876 5875 5873 5872 5871 5870 5868 5867 5865 5864 5863 5861 5860 5859 5857 5856 5855 5854 5852
5888 5888 5888 5888 5888 5888 5888 5888 5888 5887 5887 5886 5885 5885 5884 5883 5883 5882 5881 5880 5879 5877 5876 5875 5874 5872 5871 5870 5868 5867 5865 5864 5863 5861 5860 5859 5857 5856 5854 5853 5851 5850 5848
5884 5885 5885 5885 5885 5885 5885 5885 5884 5884 5884 5883 5882 5882 5881 5881 5880 5879 5878 5877 5876 5874 5873 5872 5871 5869 5868 5867 5865 5864 5862 5861 5860 5858 5857 5855 5854 5852 5851 5849 5848 5846 5844
5880 5881 5881 5881 5881 5881 5881 5881 5880 5880 5880 5880 5879 5879 5878 5877 5876 5876 5875 5874 5872 5871 5870 5869 5867 5866 5865 5863 5862 5861 5859 5858 5856 5855 5853 5851 5850 5848 5846 5845 5843 5841 5840
5876 5876 5877 5877 5877 5877 5877 5877 5877 5876 5876 5875 5875 5875 5874 5873 5872 5872 5871 5869 5868 5867 5867 5865 5864 5863 5861 5860 5859 5857 5856 5854 5852 5851 5849 5847 5845 5844 5842 5840 5838 5837 5835
5871 5871 5872 5872 5872 5873 5873 5872 5872 5872 5871 5871 5871 5870 5870 5869 5868 5867 5866 5865 5864 5863 5862 5861 5860 5858 5857 5856 5854 5853 5851 5850 5848 5846 5844 5842 5841 5839 5837 5835 5833 5831 5829
5865 5865 5866 5867 5867 5867 5867 5867 5867 5867 5867 5866 5866 5865 5865 5864 5863 5862 5861 5860 5859 5858 5857 5856 5855 5854 5852 5851 5849 5848 5846 5845 5843 5841 5839 5838 5836 5834 5832 5829 5828 5825 5823
5859 5860 5860 5861 5861 5862 5862 5862 5862 5862 5862 5861 5861 5860 5860 5859 5858 5857 5856 5855 5854 5853 5852 5851 5850 5848 5847 5846 5844 5842 5841 5839 5838 5836 5834 5832 5830 5828 5826 5824 5822 5820 5817
5852 5853 5854 5854 5855 5855 5856 5856 5856 5856 5856 5856 5855 5854 5854 5853 5853 5852 5851 5850 5849 5848 5846 5845 5844 5843 5842 5840 5838 5836 5835 5833 5831 5830 5828 5826 5824 5822 5820 5818 5816 5814 5811
5845 5846 5847 5848 5848 5849 5849 5850 5850 5850 5850 5850 5849 5848 5848 5847 5847 5846 5845 5844 5843 5842 5841 5839 5838 5837 5835 5834 5832 5830 5828 5826 5825 5823 5821 5819 5817 5815 5813 5811 5809 5807 5804
5839 5839 5840 5841 5842 5842 5843 5843 5843 5843 5843 5843 5842 5842 5841 5841 5840 5840 5839 5838 5837 5835 5834 5833 5832 5830 5829 5827 5825 5823 5821 5819 5818 5816 5814 5812 5810 5808 5806 5803 5801 5799 5796
5831 5832 5833 5834 5835 5835 5835 5836 5836 5836 5836 5836 5835 5835 5834 5834 5833 5833 5832 5831 5830 5829 5827 5826 5825 5823 5821 5819 5818 5816 5814 5812 5810 5809 5807 5805 5802 5800 5797 5795 5793 5790 5787
5824 5825 5826 5827 5827 5828 5828 5828 5829 5829 5829 5828 5828 5827 5827 5826 5826 5825 5824 5823 5822 5821 5820 5819 5817 5815 5813 5812 5810 5808 5806 5804 5802 5800 5798 5796 5793 5791 5788 5786 5784 5781 5778
5817 5817 5818 5819 5820 5820 5821 5821 5821 5821 5821 5821 5820 5820 5819 5818 5817 5817 5816 5815 5814 5813 5812 5811 5809 5807 5805 5804 5802 5800 5798 5796 5794 5792 5790 5787 5784 5782 5779 5777 5774 5771 5769
5809 5810 5811 5811 5812 5813 5813 5813 5814 5814 5813 5813 5813 5812 5811 5810 5809 5809 5808 5807 5806 5805 5804 5803 5801 5799 5797 5795 5793 5791 5789 5787 5785 5782 5780 5778 5775 5772 5770 5767 5764 5761 5759
5802 5802 5803 5803 5804 5805 5805 5806 5806 5806 5806 5806 5805 5804 5804 5803 5802 5801 5799 5798 5798 5797 5795 5794 5792 5790 5788 5786 5784 5782 5780 5777 5775 5773 5770 5768 5765 5762 5760 5757 5754 5752 5749